Nantucket, MA

12:25 PM EST on February 12, 2016 (GMT -0500)
Nantucket Memorial

Weather History for KACK - June, 2013

Change the Weather History Date:

Friday, June 21, 2013

  Actual Average Record
Temperature  
Mean Temperature 62 °F -  
Max Temperature 68 °F 70 °F 91 °F (2012)
Min Temperature 57 °F 56 °F 47 °F (1970)
Degree Days  
Heating Degree Days 2    
Growing Degree Days 12 (Base 50)    
Moisture  
Dew Point 57 °F    
Average Humidity 83    
Maximum Humidity 93    
Minimum Humidity 66    
Precipitation  
Precipitation 0.00 in - - ()
Sea Level Pressure  
Sea Level Pressure 30.30 in    
Wind  
Wind Speed 9 mph (SW)    
Max Wind Speed 13 mph    
Max Gust Speed -    
Visibility 10 miles    
Events      
Averages and records for this station are not official NWS values.
T = Trace of Precipitation, MM = Missing Value Source: NWS Daily Summary

Daily Weather History Graph

Daily Weather History Graph

Search for Another Location

Airport or City:

Trip Planner

Search our weather history database for the weather conditions in past years. The results will help you decide how hot, cold, wet, or windy it might be!

Date:

Astronomy

Jun. 21, 2013 Rise Set
Actual Time 5:07 AM EDT 8:16 PM EDT
Civil Twilight 4:33 AM EDT 8:50 PM EDT
Nautical Twilight 3:50 AM EDT 9:34 PM EDT
Astronomical Twilight 2:58 AM EDT 10:25 PM EDT
Moon 6:23 PM EDT (6/21) 3:20 AM EDT (6/21)
Length of Visible Light 16h 17m
Length of Day
15h 09m
Waxing Gibbous, 95% of the Moon is Illuminated
Jun 21
Waxing Gibbous
Jun 23
Full
Jun 30
Last Quarter
Jul 8
New
Jul 15
First Quarter

Hourly Weather History & Observations

Time (EDT) Temp. Dew Point Humidity Pressure Visibility Wind Dir Wind Speed Gust Speed Precip Events Conditions
12:53 AM 57.9 °F 54.0 °F 87% 30.30 in 10.0 mi SSW 6.9 mph - N/A   Clear
1:53 AM 57.9 °F 55.0 °F 90% 30.30 in 10.0 mi SSW 6.9 mph - N/A   Clear
2:53 AM 57.9 °F 55.0 °F 90% 30.30 in 10.0 mi SSW 6.9 mph - N/A   Clear
3:53 AM 57.9 °F 55.9 °F 93% 30.30 in 10.0 mi SW 6.9 mph - N/A   Clear
4:53 AM 59.0 °F 55.9 °F 90% 30.30 in 10.0 mi SSW 9.2 mph - N/A   Clear
5:53 AM 59.0 °F 57.0 °F 93% 30.30 in 10.0 mi SW 6.9 mph - N/A   Clear
6:53 AM 61.0 °F 57.9 °F 90% 30.31 in 10.0 mi SSW 8.1 mph - N/A   Clear
7:53 AM 63.0 °F 57.9 °F 84% 30.32 in 10.0 mi SW 10.4 mph - N/A   Clear
8:53 AM 64.0 °F 57.9 °F 80% 30.31 in 10.0 mi SSW 11.5 mph - N/A   Clear
9:53 AM 64.0 °F 57.9 °F 80% 30.30 in 10.0 mi SSW 12.7 mph - N/A   Clear
10:53 AM 64.9 °F 59.0 °F 81% 30.31 in 10.0 mi SW 11.5 mph - N/A   Clear
11:53 AM 66.0 °F 59.0 °F 78% 30.32 in 10.0 mi SSW 12.7 mph - N/A   Clear
12:53 PM 66.9 °F 59.0 °F 76% 30.32 in 10.0 mi SSW 11.5 mph - N/A   Clear
1:53 PM 66.0 °F 59.0 °F 78% 30.31 in 10.0 mi SW 12.7 mph - N/A   Clear
2:53 PM 68.0 °F 57.0 °F 68% 30.29 in 10.0 mi SW 12.7 mph - N/A   Unknown
3:53 PM 66.9 °F 55.0 °F 66% 30.28 in 10.0 mi SSW 11.5 mph - N/A   Clear
4:53 PM 66.0 °F 55.0 °F 68% 30.27 in 10.0 mi SW 11.5 mph - N/A   Clear
5:53 PM 64.9 °F 55.0 °F 70% 30.27 in 10.0 mi SW 11.5 mph - N/A   Clear
6:53 PM 63.0 °F 57.0 °F 81% 30.27 in 10.0 mi SW 10.4 mph - N/A   Clear
7:53 PM 62.1 °F 57.0 °F 84% 30.28 in 10.0 mi SW 9.2 mph - N/A   Clear
8:53 PM 61.0 °F 57.0 °F 87% 30.28 in 10.0 mi SW 9.2 mph - N/A   Clear
9:53 PM 61.0 °F 57.9 °F 90% 30.29 in 10.0 mi SW 8.1 mph - N/A   Clear
10:53 PM 61.0 °F 57.9 °F 90% 30.28 in 10.0 mi SW 8.1 mph - N/A   Clear
11:53 PM 61.0 °F 57.9 °F 90% 30.27 in 10.0 mi SW 10.4 mph - N/A   Clear